Weather History for LIRN - September, 2012

Change the Weather History Date:

Tuesday, September 4, 2012

  Actual Average Record
Temperature  
Mean Temperature 73 °F -  
Max Temperature 82 °F 78 °F 93 °F (2011)
Min Temperature 64 °F 59 °F 62 °F (1999)
Cooling Degree Days 8    
Growing Degree Days 23 (Base 50)    
Moisture  
Dew Point 65 °F    
Average Humidity 75    
Maximum Humidity 94    
Minimum Humidity 54    
Precipitation  
Precipitation 0.00 in 0.11 in - ()
Sea Level Pressure  
Sea Level Pressure 29.91 in    
Wind  
Wind Speed 4 mph ()    
Max Wind Speed 13 mph    
Max Gust Speed 20 mph    
Visibility 6.2 miles    
Events Rain    
Averages and records for this station are not official NWS values.
T = Trace of Precipitation, MM = Missing Value Source: Averaged Metar Reports

Daily Weather History Graph

Daily Weather History Graph

Search for Another Location

Airport or City:

Trip Planner

Search our weather history database for the weather conditions in past years. The results will help you decide how hot, cold, wet, or windy it might be!

Date:

Astronomy

Sep. 04, 2012 Rise Set
Actual Time 6:32 AM CEST 7:29 PM CEST
Civil Twilight 6:04 AM CEST 7:57 PM CEST
Nautical Twilight 5:31 AM CEST 8:31 PM CEST
Astronomical Twilight 4:56 AM CEST 9:05 PM CEST
Moon 9:10 PM CEST (9/4) 10:24 AM CEST (9/4)
Length of Visible Light 13h 53m
Length of Day
12h 57m
Waning Gibbous, 85% of the Moon is Illuminated
Sep 4
Waning Gibbous
Sep 8
Last Quarter
Sep 16
New
Sep 22
First Quarter
Sep 30
Full

Hourly Weather History & Observations

Time (CEST) Temp. Heat Index Dew Point Humidity Pressure Visibility Wind Dir Wind Speed Gust Speed Precip Events Conditions
12:20 AM 69.8 °F - 64.4 °F 83% 29.95 in - North 3.5 mph - N/A   Clear
12:50 AM 68.0 °F - 64.4 °F 88% 29.95 in - NNE 2.3 mph - N/A   Clear
1:20 AM 68.0 °F - 64.4 °F 88% 29.95 in - North 2.3 mph - N/A   Clear
1:50 AM 68.0 °F - 64.4 °F 88% 29.95 in - Variable 1.2 mph - N/A   Clear
2:20 AM 66.2 °F - 64.4 °F 94% 29.92 in - Calm Calm - N/A   Clear
2:50 AM 66.2 °F - 64.4 °F 94% 29.92 in - East 2.3 mph - N/A   Clear
3:20 AM 66.2 °F - 62.6 °F 88% 29.92 in - Calm Calm - N/A   Clear
3:50 AM 64.4 °F - 62.6 °F 94% 29.92 in - Variable 2.3 mph - N/A   Clear
4:20 AM 66.2 °F - 62.6 °F 88% 29.92 in - Variable 2.3 mph - N/A   Clear
4:50 AM 64.4 °F - 62.6 °F 94% 29.92 in - North 2.3 mph - N/A   Clear
5:20 AM 64.4 °F - 62.6 °F 94% 29.89 in 6.2 mi Variable 2.3 mph - N/A   Partly Cloudy
5:50 AM 64.4 °F - 62.6 °F 94% 29.89 in 6.2 mi North 2.3 mph - N/A   Partly Cloudy
6:20 AM 64.4 °F - 60.8 °F 88% 29.89 in 6.2 mi Variable 2.3 mph - N/A   Partly Cloudy
6:50 AM 66.2 °F - 62.6 °F 88% 29.89 in 6.2 mi Variable 2.3 mph - N/A   Partly Cloudy
7:20 AM 68.0 °F - 62.6 °F 83% 29.92 in 6.2 mi North 4.6 mph - N/A   Partly Cloudy
7:50 AM 68.0 °F - 62.6 °F 83% 29.89 in 6.2 mi NNE 4.6 mph - N/A   Partly Cloudy
8:20 AM 69.8 °F - 62.6 °F 78% 29.89 in 6.2 mi NNE 3.5 mph - N/A   Partly Cloudy
8:50 AM 75.2 °F - 66.2 °F 73% 29.89 in 6.2 mi NNE 1.2 mph - N/A   Partly Cloudy
9:20 AM 77.0 °F - 64.4 °F 65% 29.89 in 6.2 mi East 3.5 mph - N/A   Partly Cloudy
9:50 AM 80.6 °F 81.8 °F 62.6 °F 54% 29.89 in 6.2 mi SE 3.5 mph - N/A   Partly Cloudy
10:20 AM 80.6 °F 81.8 °F 62.6 °F 54% 29.89 in 6.2 mi South 6.9 mph - N/A   Scattered Clouds
10:50 AM 80.6 °F 81.8 °F 62.6 °F 54% 29.92 in 6.2 mi South 9.2 mph - N/A   Scattered Clouds
11:20 AM 80.6 °F 81.8 °F 62.6 °F 54% 29.89 in 6.2 mi South 8.1 mph - N/A   Scattered Clouds
11:50 AM 80.6 °F 82.3 °F 64.4 °F 58% 29.89 in 6.2 mi South 9.2 mph - N/A   Mostly Cloudy
12:20 PM 78.8 °F - 64.4 °F 61% 29.92 in 6.2 mi South 11.5 mph - N/A   Mostly Cloudy
12:50 PM 77.0 °F - 64.4 °F 65% 29.92 in 6.2 mi South 9.2 mph - N/A   Mostly Cloudy
1:20 PM 77.0 °F - 64.4 °F 65% 29.92 in 6.2 mi SSE 8.1 mph - N/A Rain Light Rain
1:50 PM 80.6 °F 83.2 °F 68.0 °F 65% 29.92 in 6.2 mi South 4.6 mph - N/A Rain Light Rain
2:20 PM 82.4 °F 84.6 °F 66.2 °F 58% 29.89 in 6.2 mi SSE 12.7 mph - N/A   Mostly Cloudy
2:50 PM 80.6 °F 82.3 °F 64.4 °F 58% 29.89 in 6.2 mi South 11.5 mph - N/A   Mostly Cloudy
3:20 PM 78.8 °F - 64.4 °F 61% 29.89 in 6.2 mi South 11.5 mph - N/A Rain Light Rain
3:50 PM 80.6 °F 83.2 °F 68.0 °F 65% 29.89 in 6.2 mi SSE 8.1 mph 19.6 mph N/A   Mostly Cloudy
4:20 PM 78.8 °F - 66.2 °F 65% 29.89 in 6.2 mi South 12.7 mph - N/A   Mostly Cloudy
4:50 PM 78.8 °F - 66.2 °F 65% 29.89 in 6.2 mi South 12.7 mph - N/A   Mostly Cloudy
5:20 PM 78.8 °F - 66.2 °F 65% 29.89 in 6.2 mi South 11.5 mph - N/A   Mostly Cloudy
5:50 PM 78.8 °F - 66.2 °F 65% 29.89 in 6.2 mi South 12.7 mph - N/A   Mostly Cloudy
6:20 PM 78.8 °F - 66.2 °F 65% 29.89 in 6.2 mi South 11.5 mph - N/A   Scattered Clouds
6:50 PM 77.0 °F - 66.2 °F 69% 29.89 in 6.2 mi South 8.1 mph - N/A   Unknown
7:20 PM 77.0 °F - 66.2 °F 69% 29.89 in 6.2 mi SSE 6.9 mph - N/A   Scattered Clouds
7:50 PM 75.2 °F - 66.2 °F 73% 29.89 in 6.2 mi SSE 6.9 mph - N/A   Scattered Clouds
8:20 PM 75.2 °F - 66.2 °F 73% 29.89 in 6.2 mi ESE 5.8 mph - N/A Rain Light Rain
8:50 PM 73.4 °F - 66.2 °F 78% 29.92 in 6.2 mi SE 5.8 mph - N/A   Light Drizzle
9:20 PM 73.4 °F - 68.0 °F 83% 29.92 in 6.2 mi Variable 2.3 mph - N/A   Light Drizzle
9:50 PM 71.6 °F - 68.0 °F 88% 29.92 in 6.2 mi East 4.6 mph - N/A   Partly Cloudy
10:20 PM 71.6 °F - 68.0 °F 88% 29.92 in 6.2 mi Variable 1.2 mph - N/A   Partly Cloudy
10:50 PM 71.6 °F - 68.0 °F 88% 29.92 in 6.2 mi East 3.5 mph - N/A   Scattered Clouds
11:20 PM 71.6 °F - 68.0 °F 88% 29.92 in 6.2 mi ENE 3.5 mph - N/A Rain Light Rain
11:50 PM 71.6 °F - 66.2 °F 83% 29.92 in 6.2 mi Variable 2.3 mph - N/A   Scattered Clouds